Location: Newark
(33.6439°N, 114.9881°W)
Time: 01:28:48
(UTC+00:00)

A-11 Canister half - Pass Details

Date: 29 August 2019
Orbit: 1527 x 1682 km, 47.3° (Epoch: 22 October)

Event Time Altitude Azimuth Distance (km) Brightness Sun altitude
Rises 22:13:51 0° 302° (WNW) 4,904 11.9 47.2°
Reaches altitude 10° 22:17:11 10° 308° (NW) 3,928 11.5 46.6°
Maximum altitude 22:26:57 50° 22° (NNE) 2,055 9.9 44.7°
Drops below altitude 10° 22:36:42 10° 96° (E) 3,927 10.8 42.9°
Sets 22:40:00 0° 102° (ESE) 4,903 11.3 42.2°
